Theta_e
310 310 309 308 307 306 306 306 300 314 316 301 301 296 300 301 303 305 304 304 302 300 301 300 301 302 306 311 311 305 308 303 298 302 309 311 306 302 300 293 293 297 297 302
310 310 309 308 307 306 301 300 305 315 313 297 297 300 301 303 302 303 303 302 304 303 299 297 304 306 312 312 312 306 313 300 294 298 302 307 303 305 303 301 301 294 294 300
310 309 309 308 307 306 302 302 301 306 310 307 302 300 300 300 305 303 305 303 304 301 299 301 301 303 310 312 315 326 315 305 298 294 299 305 304 306 305 300 295 295 297 305
310 309 308 308 307 306 304 305 304 306 300 302 304 304 301 300 301 306 305 302 303 300 296 298 300 304 305 309 316 309 308 302 304 306 309 306 305 307 308 303 301 299 301 306
308 308 308 308 307 305 306 302 301 303 301 305 304 303 304 302 302 304 304 301 303 302 298 302 300 303 302 304 310 308 307 302 307 305 310 310 307 309 311 309 308 303 308 307
306 306 307 307 306 304 303 306 307 303 300 301 299 301 303 304 306 304 307 307 303 301 303 309 308 307 307 308 310 311 308 304 305 298 308 308 301 307 311 312 312 306 303 309
305 305 306 307 306 305 300 303 304 300 296 299 299 303 306 305 308 307 309 308 306 310 316 315 313 309 308 311 311 313 310 311 304 300 304 295 306 314 314 312 313 316 314 313
305 305 306 307 306 306 301 304 303 300 295 299 300 303 303 307 310 309 310 311 315 314 312 305 303 302 303 307 310 310 315 309 303 299 298 304 308 313 310 309 310 317 313 315
304 305 305 305 306 305 302 303 309 302 297 297 301 300 305 303 303 307 311 316 317 312 306 303 297 296 301 301 304 308 309 310 305 302 297 295 305 315 318 315 304 320 318 317
305 304 305 305 305 305 302 301 309 303 296 301 301 301 300 303 306 303 307 308 311 311 302 298 297 297 303 299 299 299 301 304 302 301 299 304 315 319 319 303 307 324 320 318
303 304 304 305 304 304 302 299 306 303 297 298 301 303 301 303 308 302 306 307 307 309 300 298 299 298 301 303 307 302 301 298 297 300 297 295 325 319 311 320 324 328 328 326
303 303 303 303 303 304 303 298 304 305 299 298 304 304 305 305 305 303 309 305 305 310 306 305 304 301 306 305 302 313 304 309 305 306 306 318 318 321 327 329 326 326 325 325
303 303 303 303 303 303 302 298 301 301 298 299 300 301 307 309 308 309 304 309 311 311 313 307 306 305 305 301 303 307 309 315 309 308 314 313 318 319 323 324 328 327 327 326
302 303 303 303 303 303 302 298 302 301 298 294 301 311 310 312 310 309 311 310 310 311 312 307 303 302 307 303 307 303 309 313 309 309 315 313 318 321 324 326 328 327 326 325
303 303 303 303 303 303 302 302 304 306 298 292 295 302 307 309 312 311 312 309 309 306 305 302 303 307 306 306 305 303 309 308 307 304 316 311 317 321 323 323 321 324 323 321
303 303 303 304 304 303 300 300 307 309 304 296 292 304 307 312 311 309 309 309 309 308 304 303 306 313 306 300 298 310 313 316 317 312 315 321 321 323 325 321 322 324 322 321
303 304 304 305 305 301 299 299 304 305 307 297 293 298 309 311 311 308 307 308 306 306 304 303 304 305 307 302 297 307 309 314 316 317 314 315 318 313 322 323 323 322 322 320
303 304 304 305 306 303 300 307 307 305 302 300 293 298 303 311 305 304 309 304 306 306 304 305 302 304 306 298 304 306 312 313 314 314 318 317 317 321 323 321 322 319 317 317
303 303 305 305 303 303 306 309 308 310 303 295 297 295 296 308 305 308 308 309 301 306 301 301 303 301 299 303 305 308 310 308 311 314 318 318 315 318 319 319 318 316 316 317
304 301 301 300 309 311 310 304 301 301 301 300 295 301 297 303 302 304 304 305 301 297 300 303 298 297 304 308 310 311 311 312 314 310 312 313 312 314 316 318 319 317 316 318
303 299 298 303 311 305 302 298 296 298 296 300 300 301 300 307 300 300 305 301 302 295 298 298 297 296 302 307 309 311 314 314 314 315 314 317 315 312 313 318 319 318 318 318
296 296 299 302 302 300 296 296 299 297 296 303 300 304 306 306 309 302 304 300 301 294 304 300 295 301 307 308 309 311 314 314 313 316 314 317 321 319 318 319 318 318 318 320
302 298 297 298 299 288 291 290 294 297 304 306 305 303 305 308 306 301 301 297 296 305 299 296 301 308 310 310 314 312 314 314 313 315 314 314 321 322 321 319 318 318 316 317
297 295 285 290 290 292 295 296 297 303 303 301 302 301 304 306 302 303 296 301 302 296 294 296 303 307 310 311 313 316 311 312 311 311 312 312 320 320 320 319 319 316 313 315
295 295 286 292 297 300 299 301 301 304 304 302 301 302 305 302 300 302 300 296 294 294 293 301 306 309 308 312 314 309 313 314 311 314 317 318 319 317 317 317 315 314 310 307
296 295 292 298 297 297 299 300 300 305 304 304 306 299 295 295 298 296 295 295 292 294 301 305 308 309 310 311 314 309 314 318 318 317 316 315 313 312 310 311 311 312 311 312
294 294 299 297 299 298 299 301 302 307 303 299 299 292 292 298 294 296 300 296 299 302 304 308 310 310 311 314 315 315 315 314 314 313 312 311 311 310 308 307 308 309 310 310
Wind_Speed
20 20 22 24 26 31 10 5 4 8 9 4 4 8 6 7 19 22 18 7 7 9 13 13 14 13 10 5 15 12 14 8 6 10 14 6 7 9 9 7 9 2 6 2
19 19 22 23 23 20 7 6 5 5 7 5 7 8 17 20 20 20 16 11 6 8 10 8 8 12 12 11 12 4 1 5 1 8 9 7 6 8 6 7 5 5 4 4
21 19 22 24 25 22 5 5 4 4 5 4 9 12 13 16 18 21 21 14 5 7 9 8 8 13 10 15 4 2 7 2 6 8 9 2 3 7 8 7 4 6 6 9
18 20 24 26 28 30 2 4 3 5 4 3 9 10 13 16 18 14 17 9 6 8 7 9 8 11 11 15 9 3 4 1 3 7 10 10 14 9 9 7 9 8 7 13
20 21 22 24 28 36 3 5 6 7 10 9 11 10 8 15 20 16 8 5 8 13 8 8 9 8 6 5 11 6 2 3 3 6 10 15 14 14 10 12 13 7 13 5
21 21 21 21 23 22 5 7 5 5 7 9 9 10 13 15 14 21 16 14 12 12 14 5 7 7 6 4 3 5 1 3 1 4 7 10 9 5 5 5 4 3 6 10
19 19 19 18 18 15 6 6 4 5 7 8 9 17 17 18 20 15 13 14 9 8 6 6 7 8 7 8 7 1 2 3 2 2 4 8 7 2 7 3 4 10 16 18
17 18 18 17 17 16 7 7 3 4 7 10 13 16 16 17 15 14 16 11 0 10 3 2 3 4 4 7 9 8 5 3 2 3 4 7 8 3 3 5 7 14 16 12
15 16 16 16 15 15 8 8 3 4 5 4 13 13 11 8 9 8 8 15 12 7 2 2 4 4 2 5 5 7 2 3 5 1 1 4 7 5 4 6 2 11 19 13
14 15 16 17 17 15 8 6 6 3 5 9 10 6 7 10 4 5 7 11 9 4 2 2 3 5 8 10 7 8 7 3 7 5 4 5 6 2 2 7 7 9 16 18
14 15 16 16 16 16 10 7 8 3 5 12 9 12 9 8 2 3 8 9 8 5 2 3 4 4 6 5 6 8 7 6 5 2 5 9 13 4 3 8 4 9 14 12
14 15 15 15 15 14 13 5 8 8 5 9 13 17 19 16 11 1 3 1 4 4 5 6 4 4 5 2 2 7 5 2 1 2 2 3 6 7 15 7 14 9 17 12
15 15 15 14 14 13 9 6 7 6 6 9 9 12 19 15 16 11 5 2 3 4 3 5 5 4 4 4 2 2 5 6 3 4 3 5 9 9 13 20 6 17 16 16
16 16 16 16 14 13 10 6 6 4 5 6 4 11 3 5 17 17 12 8 5 8 3 3 3 2 1 1 3 2 1 4 7 5 5 5 11 11 12 19 12 7 13 14
17 17 17 16 16 13 9 7 8 4 3 5 9 17 11 12 7 6 4 4 5 7 3 3 4 7 3 1 1 3 0 2 3 2 6 4 5 5 11 16 24 6 16 16
18 18 18 17 15 11 6 1 3 1 6 5 6 7 8 3 6 6 5 5 4 4 3 3 4 9 3 2 0 5 6 6 5 2 5 10 6 5 10 16 11 16 9 10
19 18 17 15 11 4 3 2 2 8 4 2 6 6 5 5 4 5 4 7 4 5 4 5 4 4 4 2 2 2 5 7 5 3 1 6 5 4 7 15 15 8 6 11
20 19 18 13 6 6 5 4 8 3 3 2 4 4 7 7 2 2 1 4 5 4 4 3 3 2 2 2 4 3 6 4 6 6 6 2 4 7 6 7 12 10 8 12
21 20 13 3 3 3 0 8 4 2 2 4 3 4 1 5 4 1 4 2 3 5 7 7 4 4 4 6 7 4 2 2 6 6 5 4 5 2 5 7 10 9 7 10
18 3 3 3 2 12 8 1 2 3 4 4 5 5 6 6 6 3 4 4 4 3 4 3 7 8 8 10 10 7 6 6 6 2 6 5 4 9 9 5 7 8 6 10
1 3 2 4 8 3 3 2 3 4 4 5 5 3 5 5 5 3 2 3 4 3 4 4 3 7 8 11 13 11 9 8 7 6 4 16 16 13 11 7 6 9 9 8
7 7 8 5 3 3 4 3 3 5 2 1 1 2 2 2 2 3 3 3 4 4 4 2 4 3 8 7 12 13 12 10 7 1 5 5 19 12 9 11 11 9 8 13
4 5 4 2 1 2 5 3 2 1 2 2 2 2 2 1 1 3 3 4 5 5 3 3 5 11 12 12 11 7 12 13 8 5 7 11 12 13 15 8 9 8 12 11
4 4 3 4 4 4 2 3 2 3 4 3 3 2 2 2 2 3 4 4 4 3 3 6 7 13 16 14 11 17 5 15 15 21 21 15 11 12 11 9 8 8 14 12
5 4 3 7 7 1 3 3 3 1 3 5 4 4 1 2 3 3 3 4 0 8 5 4 8 10 13 15 10 12 17 3 6 7 14 12 12 11 11 8 7 10 13 11
4 4 6 3 6 1 2 3 3 1 4 2 3 4 3 3 4 4 5 3 3 2 4 5 6 9 9 13 8 8 10 9 15 15 14 14 13 13 13 11 10 10 11 12
4 5 7 10 1 4 1 2 4 4 2 2 2 2 2 5 4 3 4 3 4 6 7 5 8 11 12 10 3 12 4 12 14 13 12 13 13 13 14 14 11 14 13 13
Wind_Direction
353 352 353 353 351 344 355 306 278 135 148 151 193 232 243 268 281 297 297 261 301 304 307 311 319 313 185 243 213 200 204 193 217 254 268 252 179 196 186 142 279 209 145 351
353 353 353 353 353 2 319 306 283 267 156 212 233 239 239 256 267 270 275 277 198 273 285 308 307 328 320 348 345 149 17 213 165 319 332 298 187 236 204 185 132 237 129 183
349 357 353 351 347 346 319 280 278 239 204 233 266 284 270 248 241 260 273 278 279 262 272 287 282 303 310 328 130 73 70 28 163 194 216 160 269 234 240 173 141 225 214 142
5 360 354 350 346 339 264 238 327 25 346 283 315 270 265 290 287 263 242 266 242 272 246 279 279 287 292 299 298 88 98 245 327 303 299 281 275 230 261 274 229 160 202 167
360 357 355 356 352 338 226 346 353 335 297 313 320 301 289 258 274 279 259 177 256 271 260 226 249 273 284 267 324 319 169 243 279 297 307 302 305 297 229 241 233 233 105 87
355 355 354 360 3 352 341 350 346 282 306 313 308 286 310 322 310 274 286 286 204 233 259 319 285 280 265 285 355 335 301 135 263 260 291 298 296 263 11 323 1 192 150 168
351 354 355 359 5 12 324 298 318 284 301 307 297 338 333 331 317 309 303 289 318 228 69 16 323 301 315 312 285 247 22 14 154 272 316 265 244 28 292 268 313 90 104 145
348 350 353 357 360 360 337 296 338 319 301 323 313 351 334 322 330 336 312 273 14 344 67 85 289 309 335 303 297 302 135 112 332 146 243 286 304 124 24 359 310 132 137 154
340 345 352 352 357 356 337 296 345 305 306 213 348 313 332 343 348 325 316 349 322 54 320 156 205 223 230 230 272 280 239 153 137 356 291 273 258 203 189 251 26 161 143 162
345 350 349 348 354 352 338 280 317 304 288 271 348 320 326 314 337 299 321 341 319 119 328 316 245 220 252 252 225 224 246 205 191 195 218 284 305 71 226 152 196 157 160 161
341 340 344 348 349 353 352 290 283 305 292 295 267 302 315 331 37 352 332 328 6 312 224 205 253 257 251 248 236 207 191 197 211 215 204 252 353 321 275 147 97 111 140 127
338 338 337 340 344 346 349 289 355 349 272 269 312 280 260 250 265 303 67 258 295 331 317 357 309 295 9 25 339 360 55 23 336 119 133 12 320 357 8 116 121 109 112 121
331 330 331 332 331 334 338 301 290 309 257 264 235 239 250 215 226 233 134 165 276 346 186 296 304 66 356 5 45 61 329 4 20 346 19 8 2 10 4 18 238 130 129 136
327 326 325 323 322 318 315 290 298 298 281 279 303 349 179 225 204 220 184 160 152 253 180 255 310 294 213 349 163 80 91 53 326 269 35 346 47 31 25 31 302 89 106 110
324 323 320 316 311 308 295 261 253 210 268 314 297 307 275 250 187 201 219 214 182 206 250 260 281 295 337 212 41 73 60 1 13 24 334 101 71 75 45 61 357 58 102 108
321 319 319 315 309 309 283 231 175 256 214 310 296 338 286 271 170 195 213 216 195 236 255 214 197 186 225 283 193 97 99 81 50 61 48 79 92 147 112 90 74 348 45 85
318 315 313 311 303 265 273 320 340 333 327 257 293 279 321 275 168 190 191 212 225 217 235 236 213 209 171 181 225 184 152 139 144 128 10 147 211 147 136 126 138 148 94 83
314 313 311 306 278 256 269 237 213 263 253 257 278 283 339 335 295 338 143 194 193 212 241 277 264 291 125 241 212 196 143 108 169 168 202 56 90 154 174 153 123 118 118 125
310 307 301 271 226 237 246 126 148 239 297 299 268 303 283 265 324 0 347 289 213 195 189 216 216 208 196 189 247 269 280 241 243 175 158 168 144 185 58 146 132 129 149 143
311 270 201 251 210 116 134 145 190 203 203 224 258 264 293 349 347 17 355 312 285 304 250 209 213 237 229 184 204 242 200 230 238 189 144 145 164 148 140 172 122 128 136 140
340 326 37 330 158 228 217 232 231 206 223 207 241 287 338 333 345 336 303 316 293 281 255 252 240 237 223 224 206 210 188 198 216 224 238 189 167 170 176 168 157 140 153 128
313 294 278 255 230 238 262 240 214 224 255 163 304 264 262 326 349 305 312 280 277 259 272 264 239 312 297 249 212 200 192 182 198 68 337 270 172 180 181 181 151 160 128 130
260 203 241 288 229 352 241 248 235 48 330 35 6 315 277 5 284 260 269 263 241 344 272 263 36 5 339 334 351 277 185 177 130 51 354 278 161 169 149 140 138 129 113 129
247 205 291 222 220 249 328 81 264 310 326 31 350 317 223 230 251 235 251 253 298 260 245 39 2 340 328 338 336 2 210 175 152 142 218 255 142 137 134 123 123 113 130 135
266 228 221 212 247 321 5 33 323 96 290 346 328 322 44 261 268 230 290 255 281 16 354 322 327 338 334 332 339 2 341 224 194 166 158 128 97 95 91 90 98 110 115 112
258 258 274 274 214 67 33 12 2 299 329 345 21 11 320 286 327 262 236 291 84 200 258 304 324 316 314 320 334 42 332 69 70 74 93 94 94 98 92 80 81 92 105 105
251 250 252 251 19 82 1 340 9 8 12 47 15 322 328 310 262 261 27 27 331 337 327 333 323 332 323 306 350 144 145 85 79 81 90 95 97 95 95 95 87 88 90 94